Joliet, IL

4:45 AM CDT on August 28, 2016 (GMT -0500)
Joliet Regional

Weather History for KJOT - September, 2013

Change the Weather History Date:

Wednesday, September 18, 2013

  Actual Average (KLOT) Record (KLOT)
Temperature  
Mean Temperature 69 °F 64 °F  
Max Temperature 82 °F 75 °F 88 °F (2007)
Min Temperature 57 °F 54 °F 43 °F (1995)
Degree Days  
Heating Degree Days 0 3  
Month to date heating degree days 29  
Since 1 July heating degree days 37  
Cooling Degree Days 4 2  
Month to date cooling degree days 73  
Year to date cooling degree days 826  
Growing Degree Days 19 (Base 50)    
Moisture  
Dew Point 59 °F    
Average Humidity 76    
Maximum Humidity 92    
Minimum Humidity 52    
Precipitation  
Precipitation 0.14 in 0.10 in 2.27 in (2015)
Month to date precipitation 1.97  
Year to date precipitation 29.79  
Sea Level Pressure  
Sea Level Pressure 30.04 in    
Wind  
Wind Speed 4 mph (SSE)    
Max Wind Speed 20 mph    
Max Gust Speed 28 mph    
Visibility 10 miles    
Events Rain , Thunderstorm    
T = Trace of Precipitation, MM = Missing Value Source: NWS Daily Summary

Daily Weather History Graph

Daily Weather History Graph

Search for Another Location

Airport or City:

Trip Planner

Search our weather history database for the weather conditions in past years. The results will help you decide how hot, cold, wet, or windy it might be!

Date:

Astronomy

Sep. 18, 2013 Rise Set
Actual Time 6:36 AM CDT 6:56 PM CDT
Civil Twilight 6:08 AM CDT 7:24 PM CDT
Nautical Twilight 5:35 AM CDT 7:56 PM CDT
Astronomical Twilight 5:02 AM CDT 8:29 PM CDT
Moon 6:19 PM CDT (9/18) 5:38 AM CDT (9/18)
Length of Visible Light 13h 15m
Length of Day
12h 20m
Waxing Gibbous, 99% of the Moon is Illuminated
Sep 18
Waxing Gibbous
Sep 19
Full
Sep 26
Last Quarter
Oct 4
New
Oct 11
First Quarter

Hourly Weather History & Observations

Time (CDT) Temp. Heat Index Dew Point Humidity Pressure Visibility Wind Dir Wind Speed Gust Speed Precip Events Conditions
12:15 AM 59.4 °F - 50.9 °F 74% 30.13 in 10.0 mi Calm Calm - N/A   Clear
12:35 AM 58.5 °F - 51.3 °F 77% 30.12 in 10.0 mi SE 3.5 mph - N/A   Scattered Clouds
12:55 AM 59.0 °F - 51.4 °F 76% 30.12 in 10.0 mi SE 3.5 mph - N/A   Scattered Clouds
1:15 AM 58.8 °F - 51.4 °F 76% 30.12 in 10.0 mi Calm Calm - N/A   Clear
1:35 AM 58.8 °F - 51.3 °F 76% 30.12 in 10.0 mi Calm Calm - N/A   Scattered Clouds
1:55 AM 58.3 °F - 51.3 °F 77% 30.12 in 10.0 mi Calm Calm - N/A   Clear
2:15 AM 58.3 °F - 51.3 °F 77% 30.12 in 10.0 mi SE 3.5 mph - N/A   Clear
2:35 AM 57.7 °F - 51.3 °F 79% 30.11 in 10.0 mi SE 3.5 mph - N/A   Clear
2:55 AM 57.7 °F - 51.8 °F 81% 30.11 in 10.0 mi SE 3.5 mph - N/A   Clear
3:15 AM 58.3 °F - 51.8 °F 79% 30.11 in 10.0 mi SE 3.5 mph - N/A   Clear
3:35 AM 58.5 °F - 51.8 °F 79% 30.10 in 10.0 mi Calm Calm - N/A   Scattered Clouds
3:55 AM 58.5 °F - 51.8 °F 79% 30.10 in 10.0 mi Calm Calm - N/A   Scattered Clouds
4:15 AM 58.5 °F - 52.3 °F 80% 30.10 in 10.0 mi Calm Calm - N/A   Scattered Clouds
4:35 AM 58.5 °F - 52.3 °F 80% 30.10 in 10.0 mi SE 3.5 mph - N/A   Mostly Cloudy
4:55 AM 59.0 °F - 52.5 °F 79% 30.10 in 10.0 mi Calm Calm - N/A   Overcast
5:15 AM 59.0 °F - 52.7 °F 80% 30.10 in 10.0 mi Calm Calm - N/A   Overcast
5:35 AM 59.4 °F - 52.9 °F 79% 30.10 in 10.0 mi Calm Calm - N/A   Mostly Cloudy
5:55 AM 59.5 °F - 52.9 °F 79% 30.10 in 10.0 mi Calm Calm - N/A   Mostly Cloudy
6:15 AM 59.9 °F - 53.2 °F 79% 30.10 in 10.0 mi SSE 4.6 mph - N/A   Overcast
6:35 AM 60.1 °F - 53.4 °F 79% 30.10 in 10.0 mi SE 4.6 mph - N/A   Mostly Cloudy
6:55 AM 60.8 °F - 53.8 °F 78% 30.10 in 10.0 mi SE 3.5 mph - N/A   Overcast
7:15 AM 61.3 °F - 54.1 °F 77% 30.10 in 10.0 mi SE 3.5 mph - N/A   Overcast
7:35 AM 61.7 °F - 54.3 °F 77% 30.10 in 10.0 mi SSE 3.5 mph - N/A   Mostly Cloudy
7:55 AM 62.4 °F - 54.5 °F 75% 30.10 in 10.0 mi SSE 3.5 mph - N/A   Mostly Cloudy
8:15 AM 62.8 °F - 54.9 °F 75% 30.10 in 10.0 mi SSE 4.6 mph - N/A   Scattered Clouds
8:35 AM 63.5 °F - 55.2 °F 74% 30.10 in 10.0 mi SSE 5.8 mph - N/A   Clear
8:55 AM 65.7 °F - 55.9 °F 71% 30.09 in 10.0 mi SSE 6.9 mph - N/A Rain Light Rain
9:15 AM 65.7 °F - 55.9 °F 71% 30.09 in 10.0 mi SSE 8.1 mph - N/A   Scattered Clouds
9:35 AM 67.1 °F - 56.3 °F 68% 30.09 in 10.0 mi SSE 6.9 mph - N/A   Clear
9:55 AM 69.8 °F - 57.2 °F 64% 30.08 in 10.0 mi South 6.9 mph - N/A   Clear
10:15 AM 71.2 °F - 57.7 °F 62% 30.08 in 10.0 mi South 8.1 mph - N/A   Clear
10:35 AM 72.5 °F - 58.3 °F 61% 30.08 in 10.0 mi South 9.2 mph - N/A   Clear
10:55 AM 73.6 °F - 59.0 °F 60% 30.07 in 10.0 mi South 6.9 mph - N/A   Clear
11:15 AM 75.2 °F - 60.1 °F 59% 30.06 in 10.0 mi South 9.2 mph - N/A   Clear
11:35 AM 76.1 °F - 60.6 °F 59% 30.06 in 10.0 mi South 6.9 mph - N/A   Clear
11:55 AM 76.3 °F - 61.7 °F 60% 30.06 in 10.0 mi SSW 9.2 mph - N/A   Scattered Clouds
12:15 PM 77.9 °F - 62.1 °F 58% 30.04 in 10.0 mi South 5.8 mph - N/A   Clear
12:35 PM 78.8 °F - 62.4 °F 57% 30.03 in 10.0 mi South 10.4 mph - N/A   Clear
12:55 PM 80.6 °F 81.8 °F 62.8 °F 54% 30.03 in 10.0 mi South 10.4 mph 16.1 mph N/A   Clear
1:15 PM 79.7 °F - 62.4 °F 55% 30.02 in 10.0 mi SSW 5.8 mph - N/A   Scattered Clouds
1:35 PM 80.2 °F 81.3 °F 61.9 °F 53% 30.01 in 10.0 mi SSW 11.5 mph - N/A   Scattered Clouds
1:55 PM 80.8 °F 81.9 °F 62.4 °F 53% 30.00 in 10.0 mi SSW 8.1 mph - N/A Thunderstorm Clear
2:15 PM 81.7 °F 82.7 °F 62.2 °F 52% 29.99 in 10.0 mi South 9.2 mph - N/A   Clear
2:35 PM 81.0 °F 82.1 °F 62.6 °F 53% 29.98 in 10.0 mi South 9.2 mph - N/A   Clear
2:55 PM 80.6 °F 81.7 °F 62.2 °F 53% 29.98 in 10.0 mi South 8.1 mph - N/A   Scattered Clouds
3:15 PM 80.4 °F 81.7 °F 62.8 °F 55% 29.98 in 10.0 mi SSW 8.1 mph - N/A Thunderstorm Scattered Clouds
3:35 PM 77.5 °F - 60.6 °F 56% 30.00 in 10.0 mi West 19.6 mph 27.6 mph N/A Thunderstorm Scattered Clouds
3:55 PM 67.1 °F - 63.7 °F 89% 30.01 in 4.0 mi West 9.2 mph 18.4 mph 0.10 in Rain , Thunderstorm Heavy Thunderstorms and Rain
4:15 PM 67.5 °F - 62.8 °F 85% 30.00 in 7.0 mi West 4.6 mph - 0.04 in Rain , Thunderstorm Thunderstorms and Rain
4:35 PM 66.9 °F - 63.0 °F 87% 29.98 in 10.0 mi SSE 3.5 mph - 0.04 in Rain , Thunderstorm Light Thunderstorms and Rain
4:55 PM 66.0 °F - 63.5 °F 92% 29.97 in 10.0 mi SSE 5.8 mph - 0.04 in Thunderstorm Thunderstorm
5:15 PM 66.6 °F - 63.5 °F 90% 29.97 in 10.0 mi South 5.8 mph - N/A Thunderstorm Mostly Cloudy
5:35 PM 67.1 °F - 64.4 °F 91% 29.96 in 10.0 mi SSE 3.5 mph - N/A Thunderstorm Scattered Clouds
5:55 PM 68.0 °F - 65.1 °F 90% 29.95 in 10.0 mi South 3.5 mph - N/A Thunderstorm Scattered Clouds
6:15 PM 69.1 °F - 65.8 °F 89% 29.95 in 10.0 mi Calm Calm - N/A Thunderstorm Clear
6:35 PM 69.3 °F - 65.5 °F 88% 29.94 in 10.0 mi SSE 4.6 mph - N/A   Scattered Clouds
6:55 PM 69.1 °F - 65.3 °F 88% 29.95 in 10.0 mi Calm Calm - N/A   Mostly Cloudy
7:15 PM 69.1 °F - 65.7 °F 89% 29.96 in 10.0 mi Calm Calm - N/A   Mostly Cloudy
7:35 PM 68.2 °F - 65.7 °F 92% 29.96 in 7.0 mi Calm Calm - N/A   Mostly Cloudy
7:55 PM 68.0 °F - 65.3 °F 91% 29.97 in 10.0 mi East 4.6 mph - N/A Thunderstorm Mostly Cloudy
8:15 PM 68.7 °F - 65.1 °F 88% 29.97 in 10.0 mi ESE 4.6 mph - N/A   Scattered Clouds
8:35 PM 68.4 °F - 64.9 °F 89% 29.98 in 10.0 mi East 4.6 mph - N/A Thunderstorm Mostly Cloudy
8:55 PM 68.7 °F - 64.8 °F 87% 29.98 in 10.0 mi ESE 4.6 mph - N/A Thunderstorm Mostly Cloudy
9:15 PM 69.3 °F - 65.3 °F 87% 29.98 in 10.0 mi ESE 9.2 mph - N/A   Mostly Cloudy
9:35 PM 69.3 °F - 65.3 °F 87% 29.98 in 10.0 mi SE 6.9 mph - N/A   Scattered Clouds
9:55 PM 69.1 °F - 65.3 °F 88% 29.98 in 10.0 mi SE 4.6 mph - N/A   Clear
10:15 PM 69.1 °F - 65.3 °F 88% 29.98 in 10.0 mi SE 6.9 mph - N/A   Clear
10:35 PM 68.5 °F - 64.6 °F 87% 29.98 in 10.0 mi ESE 6.9 mph - N/A   Clear
10:55 PM 68.2 °F - 63.9 °F 86% 29.99 in 10.0 mi SE 5.8 mph - N/A   Clear
11:15 PM 68.9 °F - 64.4 °F 86% 29.99 in 10.0 mi SE 8.1 mph - N/A   Clear
11:35 PM 69.1 °F - 64.8 °F 86% 29.98 in 10.0 mi SSE 6.9 mph - N/A   Clear
11:55 PM 68.9 °F - 65.1 °F 88% 29.98 in 10.0 mi SSE 4.6 mph - N/A   Clear